CAPE
2 3 4 2 2 1 2 2 1 1 1 1 0 0 1 1 0 0 0 nan nan nan nan nan nan nan nan 10 6 6 7 4 6 6 4 2 0 0 nan nan nan nan nan nan nan nan nan nan nan nan nan nan nan nan nan nan nan nan nan nan nan nan 0 2 2 4 9 10 7 7 7 4 1 1 0 0 nan nan 1 2 2 0 nan nan nan nan
2 3 3 3 3 1 1 2 1 1 1 0 1 1 1 1 0 0 nan nan nan nan nan nan nan nan nan 10 8 8 9 7 6 6 4 2 0 0 nan nan nan nan nan nan nan nan nan nan nan nan nan nan nan nan nan nan nan nan nan nan nan nan nan nan nan nan 1 3 6 6 4 nan nan nan nan nan nan nan nan nan nan nan nan nan nan nan
2 2 3 4 4 1 1 3 3 3 2 1 1 1 1 1 0 0 nan nan nan nan nan nan nan nan nan nan 11 11 12 8 6 6 4 1 nan nan nan nan nan nan nan nan nan nan nan nan nan nan nan nan nan nan nan nan nan nan nan nan nan nan nan nan nan nan nan nan nan nan nan nan nan nan nan nan nan nan nan nan nan nan nan nan nan nan
3 1 1 2 2 1 2 1 0 0 1 1 1 1 1 0 0 0 nan nan nan nan nan nan nan nan nan nan 6 6 17 10 7 7 3 1 nan nan nan nan nan nan nan nan nan nan nan nan nan nan nan nan nan nan nan nan nan nan nan nan nan nan nan nan nan nan nan nan nan nan nan nan nan nan nan nan nan nan nan nan nan nan nan nan nan nan
2 1 1 1 1 1 1 0 0 0 0 0 0 0 0 0 0 0 nan nan nan nan nan nan nan nan nan nan 0 0 14 13 7 7 3 1 nan nan nan nan nan nan nan nan nan nan nan nan nan nan nan nan nan nan nan nan nan nan nan nan nan nan nan nan nan nan nan nan nan nan nan nan nan nan nan nan nan nan nan nan nan nan nan nan nan nan
2 1 1 1 1 0 1 0 0 0 0 nan nan nan nan 0 nan nan nan nan nan nan nan nan nan nan nan nan 9 9 9 12 5 5 2 0 nan nan nan nan nan nan nan nan nan nan nan nan nan nan nan nan nan nan nan nan nan nan nan nan nan nan nan nan nan nan nan nan nan nan nan nan nan nan nan nan nan nan nan nan nan nan nan nan nan nan
1 2 1 nan nan 0 1 1 0 0 0 0 0 0 0 nan nan nan nan nan nan nan nan nan nan nan nan nan 3 3 8 6 3 3 1 nan nan nan nan nan nan nan nan nan nan nan nan nan nan nan nan nan nan nan nan nan nan nan nan nan nan nan nan nan nan nan nan nan nan nan nan nan nan nan nan nan nan nan nan nan nan nan nan nan nan nan
0 1 1 0 0 0 0 0 1 1 0 1 0 0 1 0 nan nan nan nan nan nan nan nan nan nan nan nan nan nan nan nan nan nan nan nan nan nan nan nan nan nan nan nan nan nan nan nan nan nan nan nan nan nan nan nan nan nan nan nan nan nan nan nan nan nan nan nan nan nan nan nan nan nan nan nan nan nan nan nan nan nan nan nan nan nan
0 0 1 0 0 1 0 0 nan nan nan nan 1 1 1 0 nan nan nan nan nan nan nan nan nan nan nan nan nan nan nan nan nan nan nan nan nan nan nan nan nan nan nan nan nan nan nan nan nan nan nan nan nan nan nan nan nan nan nan nan nan nan nan nan nan nan nan nan nan nan nan nan nan nan nan nan nan nan nan nan nan nan nan nan nan nan
0 0 nan nan nan nan nan 1 nan nan nan nan nan nan nan 0 1 1 0 nan nan nan nan nan nan nan nan nan nan nan nan nan nan nan nan nan nan nan nan nan nan nan nan nan nan nan nan nan nan nan nan nan nan nan nan nan nan nan nan nan nan nan nan nan nan nan nan nan nan nan nan nan nan nan nan nan nan nan nan nan nan nan nan nan nan nan
nan 0 nan nan nan nan nan nan nan nan nan nan nan nan nan nan 3 3 1 nan nan nan nan nan nan nan nan nan nan nan nan nan nan nan nan nan nan nan nan nan nan nan nan nan nan nan nan nan nan nan nan nan nan nan nan nan nan nan nan nan nan nan nan nan nan nan 0 nan nan nan nan nan nan nan nan nan nan nan nan nan nan nan nan nan nan nan
nan nan nan nan nan nan nan nan nan nan 0 1 1 1 0 nan nan nan 1 nan nan nan nan nan nan nan nan nan nan nan nan nan nan nan nan nan nan nan nan nan nan nan nan nan nan nan nan nan nan nan nan nan nan nan nan nan nan nan nan nan nan nan nan nan nan nan nan 0 0 0 nan nan nan nan nan nan nan nan nan nan nan nan nan nan nan nan
nan nan nan nan nan nan nan nan 0 0 1 2 1 1 1 nan nan nan nan nan nan nan nan nan nan nan nan nan nan nan nan nan nan nan nan nan nan nan nan nan nan nan nan nan nan nan nan nan nan nan nan nan nan nan nan nan nan nan nan 0 0 1 0 nan nan nan nan nan nan nan nan 0 0 0 nan nan nan nan nan nan nan nan nan nan nan nan
nan nan 0 1 1 0 0 0 1 1 1 2 nan nan nan nan nan nan nan nan nan nan nan nan nan nan nan nan nan nan nan nan nan nan nan nan nan nan nan nan nan nan nan nan nan nan nan nan nan nan nan nan nan nan nan nan nan nan nan 0 0 0 0 nan nan nan nan nan nan nan nan 0 0 0 0 nan nan nan nan nan nan nan nan nan nan nan
nan 0 1 1 1 1 1 0 0 0 0 nan nan nan nan nan nan nan nan nan nan nan nan nan nan nan nan nan nan nan nan nan nan nan nan nan nan nan nan nan nan nan nan nan nan nan nan nan nan nan nan nan nan nan nan nan nan nan nan nan nan nan nan nan nan nan nan nan nan nan nan 0 0 0 0 0 nan nan nan nan nan nan nan nan nan nan
0 0 nan 0 0 0 nan nan 0 0 nan nan nan nan nan nan nan nan nan nan nan nan nan nan nan nan nan nan nan nan nan nan nan nan nan nan nan nan nan nan nan nan nan nan nan nan nan nan nan nan nan nan nan nan nan nan nan nan 0 nan nan nan nan nan nan nan nan nan nan nan nan nan 0 0 0 0 0 0 nan nan nan nan nan nan nan nan
nan nan nan nan nan nan nan nan nan nan nan nan nan nan nan nan nan nan nan nan nan nan nan nan nan nan nan nan nan nan nan nan nan nan nan nan nan nan nan nan nan nan nan nan nan nan nan nan nan nan nan nan nan nan nan nan nan nan 0 nan nan nan nan nan nan nan nan nan nan nan nan nan 0 0 0 0 0 0 nan nan nan nan nan nan nan nan
nan nan nan nan nan nan nan nan nan nan nan nan nan nan nan nan nan nan nan nan nan nan nan nan nan nan nan nan nan nan nan nan nan nan nan nan nan nan nan nan nan nan nan nan nan nan nan nan nan nan nan nan nan nan nan 0 0 0 0 nan nan nan nan nan nan nan 0 1 0 0 0 0 nan nan nan 0 0 0 0 0 0 0 0 nan nan nan
nan nan nan nan nan nan nan nan nan nan nan nan nan nan nan nan nan nan nan nan nan nan nan nan nan nan nan nan nan nan nan nan nan nan nan nan nan nan nan nan nan nan nan nan nan nan nan nan nan nan nan nan nan nan nan 1 1 0 nan nan nan nan nan nan nan nan 0 1 1 1 1 1 0 0 nan nan 0 0 0 0 0 0 0 0 0 0
nan nan nan nan nan nan nan nan nan nan nan nan nan nan nan nan nan nan nan nan nan nan nan nan nan nan nan nan nan nan nan nan nan nan nan nan nan nan nan nan nan nan nan nan nan nan nan nan nan nan nan nan nan nan 0 1 1 0 nan nan nan nan nan nan nan nan 0 1 1 1 1 1 0 0 0 nan nan nan nan 0 0 1 2 2 2 1
nan nan nan nan nan nan nan nan nan nan nan nan nan nan nan nan nan nan nan nan nan nan nan nan nan nan nan nan nan nan nan nan nan nan nan nan nan nan nan nan nan nan nan nan nan nan nan nan nan nan nan nan nan nan 1 0 0 0 nan nan nan nan nan nan nan nan 0 1 1 1 0 0 nan nan nan nan nan nan nan nan nan 1 2 3 3 4
nan nan nan nan nan nan nan nan nan nan nan nan nan nan nan nan nan nan nan nan nan nan nan nan nan nan nan nan nan nan nan nan nan nan nan nan nan nan nan nan nan nan nan nan nan nan nan nan nan nan nan nan nan nan 2 1 1 0 0 nan nan nan nan nan nan nan 0 0 0 0 0 nan nan nan nan nan nan nan nan 0 0 1 2 3 3 5
nan nan nan nan nan nan nan nan nan nan nan nan nan nan nan nan nan nan nan nan nan nan nan nan nan nan nan nan nan nan nan nan nan nan nan nan nan nan nan nan nan nan nan nan nan nan nan nan nan nan nan nan nan nan 3 1 1 1 1 0 0 0 nan nan nan nan 0 0 0 0 0 0 0 0 nan nan nan nan nan 0 0 1 2 2 2 2
nan nan nan nan nan nan nan nan nan nan nan nan nan nan nan nan nan nan nan nan nan nan nan nan nan nan nan nan nan nan nan nan nan nan nan nan nan nan nan nan nan nan nan nan nan nan nan nan nan nan nan nan nan nan 2 1 1 2 1 1 1 0 nan nan nan nan nan 0 0 0 0 0 0 0 0 0 0 0 nan 0 0 1 1 2 2 2
nan nan nan nan nan nan nan nan nan nan nan nan nan nan nan nan nan nan nan nan nan nan nan nan nan nan nan nan nan nan nan nan nan nan nan nan nan nan nan nan nan nan nan nan nan nan nan nan nan nan nan nan nan nan 2 3 3 2 1 1 1 0 nan nan nan nan nan nan 0 0 0 0 0 0 0 0 0 0 0 0 0 0 1 2 2 3
nan nan nan nan nan nan nan nan nan nan nan nan nan nan nan nan nan nan nan nan nan nan nan nan nan nan nan nan nan nan nan nan nan nan nan nan nan nan nan nan nan nan nan nan nan nan nan nan nan nan nan nan nan nan 0 3 3 1 1 1 1 1 0 0 0 0 0 0 0 0 0 0 0 0 nan 0 0 0 1 1 1 1 1 1 1 2
nan nan nan nan nan nan nan nan nan nan nan nan nan nan nan nan nan nan nan nan nan nan nan nan nan nan nan nan nan nan nan nan nan nan nan nan nan nan nan nan nan nan nan nan nan nan nan nan nan nan nan nan nan nan nan 0 0 0 1 0 0 0 0 1 1 0 0 0 0 0 0 0 0 0 0 0 1 1 1 2 2 2 2 3 3 3
nan 0 nan nan nan nan nan nan nan nan nan nan nan nan nan nan nan nan nan nan nan nan nan nan nan nan nan nan nan nan nan nan nan nan nan nan nan nan nan nan nan nan nan nan nan nan nan nan nan nan nan nan nan nan nan nan nan nan nan nan nan nan 0 0 0 1 0 0 0 0 0 0 0 0 1 0 1 1 1 2 2 2 4 3 3 2
0 0 0 0 0 0 0 0 0 0 nan nan nan nan nan nan nan nan nan nan nan nan nan nan nan nan nan nan nan nan nan nan nan nan nan nan nan nan nan nan nan nan nan nan nan nan nan nan nan nan nan nan nan nan nan nan nan nan nan nan nan nan nan nan nan nan nan nan nan nan nan 0 0 0 0 1 1 1 1 2 2 3 5 2 2 1
1 2 1 2 2 2 1 1 1 1 0 nan nan nan nan nan nan nan nan nan nan nan nan nan nan nan nan nan nan nan nan nan nan nan nan nan nan nan nan nan nan nan nan nan nan nan nan nan nan nan nan nan nan nan nan nan nan nan nan nan nan nan nan nan nan nan nan nan nan nan nan nan nan nan nan 0 1 1 1 2 2 1 3 1 1 0
nan nan nan nan nan nan nan 0 1 1 1 nan nan nan nan nan nan nan nan nan nan nan nan nan nan nan nan nan nan nan nan nan nan nan nan nan nan nan nan nan nan nan nan nan nan nan nan nan nan nan nan nan nan nan nan nan nan nan nan nan nan nan nan nan nan nan nan nan nan nan nan nan nan nan nan nan 0 0 1 1 1 3 4 0 0 nan
nan nan nan nan nan nan nan nan nan nan nan nan nan nan nan nan nan nan nan nan nan nan nan nan nan nan nan nan nan nan nan nan nan nan nan nan nan nan nan nan nan nan nan nan nan nan nan nan nan nan nan nan nan nan nan nan nan nan nan nan nan nan nan nan nan nan nan nan nan nan nan nan nan nan nan nan nan nan 0 2 2 3 3 1 1 0
nan nan nan nan nan nan nan nan nan nan nan nan nan nan nan nan nan nan nan nan nan nan nan nan nan nan nan nan nan nan nan nan nan nan nan nan nan nan nan nan nan nan nan nan nan nan nan nan nan nan nan nan nan nan nan nan nan nan nan nan nan nan nan nan nan nan nan nan nan nan nan nan nan nan nan nan 0 0 1 1 1 3 5 3 3 1
nan nan nan nan nan nan nan nan nan nan nan nan nan nan nan nan nan nan nan nan nan nan nan nan nan nan nan nan nan nan nan nan nan nan nan nan nan nan nan nan nan nan nan nan nan nan nan nan nan nan nan nan nan nan nan nan nan nan nan nan nan nan nan nan nan nan nan nan nan nan nan nan nan nan nan nan nan nan 0 1 1 1 3 4 4 4
nan nan nan nan nan nan nan nan nan nan nan nan nan nan nan nan nan nan nan nan nan nan nan nan nan nan nan nan nan nan nan nan nan nan nan nan nan nan nan nan nan nan nan nan nan nan nan nan nan nan nan nan nan nan nan nan nan nan nan nan nan nan nan nan nan nan nan nan nan nan nan nan nan nan nan nan nan nan nan 0 0 0 1 3 3 3
nan nan nan nan nan nan nan nan nan nan nan nan nan nan nan nan nan nan nan nan nan nan nan nan nan nan nan nan nan nan nan nan nan nan nan nan nan nan nan nan nan nan nan nan nan nan nan nan nan nan nan nan nan nan nan nan nan nan nan nan nan nan nan nan nan nan nan nan nan nan nan nan nan nan nan nan nan nan nan nan nan nan nan 0 0 1
nan nan nan nan nan nan nan nan nan nan nan nan nan nan nan nan nan nan nan nan nan nan nan nan nan nan nan nan nan nan nan nan nan nan nan nan nan nan nan nan nan nan nan nan nan nan nan nan nan nan nan nan nan nan nan nan nan nan nan nan nan nan nan nan nan nan nan nan nan nan nan nan nan nan nan nan nan nan nan nan nan nan nan nan nan nan
nan nan nan nan nan nan nan nan nan nan nan nan nan nan nan nan nan nan nan nan nan nan nan nan nan nan nan nan nan nan nan nan nan nan nan nan nan nan nan nan nan nan nan nan nan nan nan nan nan nan nan nan nan nan nan nan nan nan nan nan nan nan nan nan nan nan nan nan nan nan nan nan nan nan nan nan nan nan nan nan nan nan nan nan nan nan
nan nan nan nan nan nan nan nan nan nan nan nan nan nan nan nan nan nan nan nan nan nan nan nan nan nan nan nan nan nan nan nan nan nan nan nan nan nan nan nan nan nan nan nan nan nan nan nan nan nan nan nan nan nan nan nan nan nan nan nan nan nan nan nan nan nan nan nan nan nan nan nan nan nan nan nan nan nan nan nan nan nan nan nan nan nan
nan nan nan nan nan nan nan nan nan nan nan nan nan nan nan nan nan nan nan nan nan nan nan nan nan nan nan nan nan nan nan nan 0 0 nan nan nan nan nan nan nan nan nan nan nan nan nan nan nan nan nan nan nan nan nan nan nan nan nan nan nan nan nan nan nan nan nan nan nan nan nan nan nan nan nan nan nan nan nan nan nan nan nan nan nan nan
nan nan nan nan nan nan nan nan nan nan nan nan nan nan nan nan nan nan nan nan nan nan nan nan nan nan nan nan nan nan nan nan nan nan nan nan nan nan nan nan nan nan nan nan nan nan nan nan nan nan nan nan nan nan nan nan nan nan nan nan nan nan nan nan nan nan nan nan nan nan nan nan nan nan nan nan nan nan nan nan nan nan nan nan nan nan
nan nan nan nan nan nan nan nan nan nan nan nan nan nan nan nan nan nan nan nan nan nan nan nan nan nan nan nan nan nan nan nan nan nan nan nan nan nan nan nan nan nan nan nan nan nan nan nan nan nan nan nan nan nan nan nan nan nan nan nan nan nan nan nan nan nan nan nan nan nan nan nan nan nan nan nan nan nan nan nan nan nan nan nan nan nan
nan nan nan nan nan nan nan nan nan nan nan nan nan nan nan nan nan nan nan nan nan nan nan nan nan nan nan nan nan nan nan nan nan nan nan nan nan nan nan nan nan nan nan nan nan nan nan nan nan nan nan nan nan nan nan nan nan nan nan nan nan nan nan nan nan nan nan nan nan nan nan nan nan nan nan nan nan nan nan nan nan nan nan nan nan nan
nan nan nan nan nan nan nan nan nan nan nan nan nan nan nan nan nan nan nan nan nan nan nan nan nan nan nan nan nan nan nan nan nan nan nan nan nan nan nan nan nan nan nan nan nan nan nan nan nan nan nan nan nan nan nan nan nan nan nan nan nan nan nan nan nan nan nan nan nan nan nan nan nan nan nan nan nan nan nan nan nan nan nan nan nan nan
nan nan nan nan nan nan nan nan nan nan nan nan nan nan nan nan nan nan nan nan nan nan nan nan nan nan nan nan nan nan nan nan nan nan nan nan nan nan nan nan nan nan nan nan nan nan nan nan nan nan nan nan nan nan nan nan nan nan nan nan nan nan nan nan nan nan nan nan nan nan nan nan nan nan nan nan nan nan nan nan nan nan nan nan nan nan
nan nan nan nan nan nan nan nan nan nan nan nan nan nan nan nan nan nan nan nan nan nan nan nan nan nan nan nan nan nan nan nan nan nan nan nan nan nan nan nan nan nan nan nan nan nan nan nan nan nan nan nan nan nan nan nan nan nan nan nan nan nan nan nan nan nan nan nan nan nan nan nan nan nan nan nan nan nan nan nan nan nan nan nan nan nan
nan nan nan nan nan nan nan nan nan nan nan nan nan nan nan nan nan nan nan nan nan nan nan nan nan nan nan nan nan nan nan nan nan nan nan nan nan nan nan nan nan nan nan nan nan nan nan nan nan nan nan nan nan nan nan nan nan nan nan nan nan nan nan nan nan nan nan nan nan nan nan nan nan nan nan nan nan nan nan nan nan nan nan nan nan nan
nan nan nan nan nan nan nan nan nan nan nan nan nan nan nan nan nan nan nan nan nan nan nan nan nan nan nan nan nan nan nan nan nan nan nan nan nan nan nan nan nan nan nan nan nan nan nan nan nan nan nan nan nan nan nan nan nan nan nan nan nan nan nan nan nan nan nan nan nan nan nan nan nan nan nan nan nan nan nan nan nan nan nan nan nan nan
nan nan nan nan nan nan nan nan nan nan nan nan nan nan nan nan nan nan nan nan nan nan nan nan nan nan nan nan nan nan nan nan nan nan nan nan nan nan nan nan nan nan nan nan nan nan nan nan nan nan nan nan nan nan nan nan nan nan nan nan nan nan nan nan nan nan nan nan nan nan nan nan nan nan nan nan nan nan nan nan nan nan nan nan nan nan
nan nan nan nan nan nan nan nan nan nan nan nan nan nan nan nan nan nan nan nan nan nan nan nan nan nan nan nan nan nan nan nan nan nan nan nan nan nan nan nan nan nan nan nan nan nan nan 0 0 1 0 nan nan nan nan nan nan nan nan nan nan nan nan nan nan nan nan nan nan nan nan nan nan nan nan nan nan nan nan nan nan nan nan nan nan nan
nan nan nan nan nan nan nan nan nan nan nan nan nan nan nan nan nan nan nan nan nan nan nan nan nan nan nan nan nan nan nan nan nan nan nan nan nan nan nan nan nan nan nan nan nan nan nan nan nan nan 1 3 0 0 nan nan nan nan nan nan nan nan nan nan nan nan nan nan nan nan nan nan nan nan nan nan nan nan nan nan nan nan nan nan nan nan
CIN
-0 -0 -0 -0 -0 -0 -0 -0 -0 -0 -0 -0 -0 -0 -0 -0 -0 -0 -0 nan nan nan nan nan nan nan nan -0 -0 -0 -0 -0 -0 -0 -0 -0 -0 -0 nan nan nan nan nan nan nan nan nan nan nan nan nan nan nan nan nan nan nan nan nan nan nan nan -0 -0 -0 -0 -0 -0 -0 -0 -0 -0 -0 -0 -0 -0 nan nan -0 -0 -0 -0 nan nan nan nan
-0 -0 -0 -0 -0 -0 -0 -0 -0 -0 -0 -0 -0 -0 -0 -0 -0 -0 nan nan nan nan nan nan nan nan nan -0 -0 -0 -0 -0 -0 -0 -0 -0 -0 -0 nan nan nan nan nan nan nan nan nan nan nan nan nan nan nan nan nan nan nan nan nan nan nan nan nan nan nan nan -0 -0 -0 -0 -0 nan nan nan nan nan nan nan nan nan nan nan nan nan nan nan
-0 -0 -0 -0 -0 -0 -0 -0 -0 -0 -0 -0 -0 -0 -0 -0 -0 -0 nan nan nan nan nan nan nan nan nan nan -0 -0 -0 -0 -0 -0 -0 -0 nan nan nan nan nan nan nan nan nan nan nan nan nan nan nan nan nan nan nan nan nan nan nan nan nan nan nan nan nan nan nan nan nan nan nan nan nan nan nan nan nan nan nan nan nan nan nan nan nan nan
-0 -0 -0 -0 -0 -0 -0 -0 -0 -0 -0 -0 -0 -0 -0 -0 -0 -0 nan nan nan nan nan nan nan nan nan nan -1 -1 -0 -0 -0 -0 -0 -0 nan nan nan nan nan nan nan nan nan nan nan nan nan nan nan nan nan nan nan nan nan nan nan nan nan nan nan nan nan nan nan nan nan nan nan nan nan nan nan nan nan nan nan nan nan nan nan nan nan nan
-0 -0 -0 -0 -0 -0 -0 -0 -0 -0 -0 -0 -0 -0 -0 -0 -0 -0 nan nan nan nan nan nan nan nan nan nan -4 -4 -0 -0 -0 -0 -0 -0 nan nan nan nan nan nan nan nan nan nan nan nan nan nan nan nan nan nan nan nan nan nan nan nan nan nan nan nan nan nan nan nan nan nan nan nan nan nan nan nan nan nan nan nan nan nan nan nan nan nan
-0 -0 -0 -0 -0 -0 -0 -0 -0 -0 -0 nan nan nan nan -0 nan nan nan nan nan nan nan nan nan nan nan nan -0 -0 -0 -0 -0 -0 -0 -0 nan nan nan nan nan nan nan nan nan nan nan nan nan nan nan nan nan nan nan nan nan nan nan nan nan nan nan nan nan nan nan nan nan nan nan nan nan nan nan nan nan nan nan nan nan nan nan nan nan nan
-0 -0 -0 nan nan -0 -0 -0 -0 -0 -0 -0 -0 -0 -0 nan nan nan nan nan nan nan nan nan nan nan nan nan -2 -2 -0 -0 -0 -0 -0 nan nan nan nan nan nan nan nan nan nan nan nan nan nan nan nan nan nan nan nan nan nan nan nan nan nan nan nan nan nan nan nan nan nan nan nan nan nan nan nan nan nan nan nan nan nan nan nan nan nan nan
-0 -0 -0 -0 -0 -0 -0 -0 -0 -0 -0 -0 -0 -0 -0 -0 nan nan nan nan nan nan nan nan nan nan nan nan nan nan nan nan nan nan nan nan nan nan nan nan nan nan nan nan nan nan nan nan nan nan nan nan nan nan nan nan nan nan nan nan nan nan nan nan nan nan nan nan nan nan nan nan nan nan nan nan nan nan nan nan nan nan nan nan nan nan
-0 -0 -0 -0 -0 -0 -0 -0 nan nan nan nan -0 -0 -0 -0 nan nan nan nan nan nan nan nan nan nan nan nan nan nan nan nan nan nan nan nan nan nan nan nan nan nan nan nan nan nan nan nan nan nan nan nan nan nan nan nan nan nan nan nan nan nan nan nan nan nan nan nan nan nan nan nan nan nan nan nan nan nan nan nan nan nan nan nan nan nan
-0 -0 nan nan nan nan nan -0 nan nan nan nan nan nan nan -0 -0 -0 -0 nan nan nan nan nan nan nan nan nan nan nan nan nan nan nan nan nan nan nan nan nan nan nan nan nan nan nan nan nan nan nan nan nan nan nan nan nan nan nan nan nan nan nan nan nan nan nan nan nan nan nan nan nan nan nan nan nan nan nan nan nan nan nan nan nan nan nan
nan -0 nan nan nan nan nan nan nan nan nan nan nan nan nan nan -0 -0 -0 nan nan nan nan nan nan nan nan nan nan nan nan nan nan nan nan nan nan nan nan nan nan nan nan nan nan nan nan nan nan nan nan nan nan nan nan nan nan nan nan nan nan nan nan nan nan nan -0 nan nan nan nan nan nan nan nan nan nan nan nan nan nan nan nan nan nan nan
nan nan nan nan nan nan nan nan nan nan -0 -0 -0 -0 -0 nan nan nan -0 nan nan nan nan nan nan nan nan nan nan nan nan nan nan nan nan nan nan nan nan nan nan nan nan nan nan nan nan nan nan nan nan nan nan nan nan nan nan nan nan nan nan nan nan nan nan nan nan -0 -0 -0 nan nan nan nan nan nan nan nan nan nan nan nan nan nan nan nan
nan nan nan nan nan nan nan nan -0 -0 -0 -0 -0 -0 -0 nan nan nan nan nan nan nan nan nan nan nan nan nan nan nan nan nan nan nan nan nan nan nan nan nan nan nan nan nan nan nan nan nan nan nan nan nan nan nan nan nan nan nan nan -0 -0 -0 -0 nan nan nan nan nan nan nan nan -0 -0 -0 nan nan nan nan nan nan nan nan nan nan nan nan
nan nan -0 -0 -0 -0 -0 -0 -0 -0 -0 -0 nan nan nan nan nan nan nan nan nan nan nan nan nan nan nan nan nan nan nan nan nan nan nan nan nan nan nan nan nan nan nan nan nan nan nan nan nan nan nan nan nan nan nan nan nan nan nan -0 -0 -0 -0 nan nan nan nan nan nan nan nan -0 -0 -0 -0 nan nan nan nan nan nan nan nan nan nan nan
nan -0 -0 -0 -0 -0 -0 -0 -0 -0 -0 nan nan nan nan nan nan nan nan nan nan nan nan nan nan nan nan nan nan nan nan nan nan nan nan nan nan nan nan nan nan nan nan nan nan nan nan nan nan nan nan nan nan nan nan nan nan nan nan nan nan nan nan nan nan nan nan nan nan nan nan -0 -0 -0 -0 -0 nan nan nan nan nan nan nan nan nan nan
-0 -0 nan -0 -0 -0 nan nan -1 -1 nan nan nan nan nan nan nan nan nan nan nan nan nan nan nan nan nan nan nan nan nan nan nan nan nan nan nan nan nan nan nan nan nan nan nan nan nan nan nan nan nan nan nan nan nan nan nan nan -0 nan nan nan nan nan nan nan nan nan nan nan nan nan -0 -0 -0 -0 -0 -0 nan nan nan nan nan nan nan nan
nan nan nan nan nan nan nan nan nan nan nan nan nan nan nan nan nan nan nan nan nan nan nan nan nan nan nan nan nan nan nan nan nan nan nan nan nan nan nan nan nan nan nan nan nan nan nan nan nan nan nan nan nan nan nan nan nan nan -0 nan nan nan nan nan nan nan nan nan nan nan nan nan -0 -0 -0 -0 -0 -0 nan nan nan nan nan nan nan nan
nan nan nan nan nan nan nan nan nan nan nan nan nan nan nan nan nan nan nan nan nan nan nan nan nan nan nan nan nan nan nan nan nan nan nan nan nan nan nan nan nan nan nan nan nan nan nan nan nan nan nan nan nan nan nan -0 -0 -0 -0 nan nan nan nan nan nan nan -0 -0 -0 -0 -0 -0 nan nan nan -0 -0 -0 -0 -0 -0 -0 -0 nan nan nan
nan nan nan nan nan nan nan nan nan nan nan nan nan nan nan nan nan nan nan nan nan nan nan nan nan nan nan nan nan nan nan nan nan nan nan nan nan nan nan nan nan nan nan nan nan nan nan nan nan nan nan nan nan nan nan -0 -0 -0 nan nan nan nan nan nan nan nan -0 -0 -0 -0 -0 -0 -0 -0 nan nan -0 -0 -0 -0 -0 -0 -0 -0 -0 -0
nan nan nan nan nan nan nan nan nan nan nan nan nan nan nan nan nan nan nan nan nan nan nan nan nan nan nan nan nan nan nan nan nan nan nan nan nan nan nan nan nan nan nan nan nan nan nan nan nan nan nan nan nan nan -0 -0 -0 -0 nan nan nan nan nan nan nan nan -0 -0 -0 -0 -0 -0 -0 -0 -0 nan nan nan nan -0 -0 -0 -0 -0 -0 -0
nan nan nan nan nan nan nan nan nan nan nan nan nan nan nan nan nan nan nan nan nan nan nan nan nan nan nan nan nan nan nan nan nan nan nan nan nan nan nan nan nan nan nan nan nan nan nan nan nan nan nan nan nan nan -0 -0 -0 -0 nan nan nan nan nan nan nan nan -0 -0 -0 -0 -0 -0 nan nan nan nan nan nan nan nan nan -0 -0 -0 -0 -0
nan nan nan nan nan nan nan nan nan nan nan nan nan nan nan nan nan nan nan nan nan nan nan nan nan nan nan nan nan nan nan nan nan nan nan nan nan nan nan nan nan nan nan nan nan nan nan nan nan nan nan nan nan nan -0 -0 -0 -0 -0 nan nan nan nan nan nan nan -0 -0 -0 -0 -0 nan nan nan nan nan nan nan nan -0 -0 -0 -0 -0 -0 -0
nan nan nan nan nan nan nan nan nan nan nan nan nan nan nan nan nan nan nan nan nan nan nan nan nan nan nan nan nan nan nan nan nan nan nan nan nan nan nan nan nan nan nan nan nan nan nan nan nan nan nan nan nan nan -0 -0 -0 -0 -0 -0 -0 -0 nan nan nan nan -0 -0 -0 -0 -0 -0 -0 -0 nan nan nan nan nan -0 -0 -0 -0 -0 -0 -0
nan nan nan nan nan nan nan nan nan nan nan nan nan nan nan nan nan nan nan nan nan nan nan nan nan nan nan nan nan nan nan nan nan nan nan nan nan nan nan nan nan nan nan nan nan nan nan nan nan nan nan nan nan nan -3 -0 -0 -0 -0 -0 -0 -0 nan nan nan nan nan -0 -0 -0 -0 -0 -0 -0 -0 -0 -0 -0 nan -0 -0 -0 -0 -0 -0 -0
nan nan nan nan nan nan nan nan nan nan nan nan nan nan nan nan nan nan nan nan nan nan nan nan nan nan nan nan nan nan nan nan nan nan nan nan nan nan nan nan nan nan nan nan nan nan nan nan nan nan nan nan nan nan -3 -0 -0 -0 -0 -0 -0 -0 nan nan nan nan nan nan -0 -0 -0 -0 -0 -0 -0 -0 -0 -0 -0 -0 -0 -0 -0 -0 -0 -0
nan nan nan nan nan nan nan nan nan nan nan nan nan nan nan nan nan nan nan nan nan nan nan nan nan nan nan nan nan nan nan nan nan nan nan nan nan nan nan nan nan nan nan nan nan nan nan nan nan nan nan nan nan nan -17 -0 -0 -0 -0 -0 -0 -0 -0 -0 -0 -0 -0 -0 -0 -0 -0 -0 -0 -0 nan -0 -0 -0 -0 -0 -0 -0 -0 -0 -0 -0
nan nan nan nan nan nan nan nan nan nan nan nan nan nan nan nan nan nan nan nan nan nan nan nan nan nan nan nan nan nan nan nan nan nan nan nan nan nan nan nan nan nan nan nan nan nan nan nan nan nan nan nan nan nan nan -0 -0 -3 -0 -0 -0 -0 -0 -0 -0 -0 -0 -0 -0 -0 -0 -0 -0 -0 -0 -0 -0 -0 -0 -0 -0 -0 -0 -0 -0 -0
nan -0 nan nan nan nan nan nan nan nan nan nan nan nan nan nan nan nan nan nan nan nan nan nan nan nan nan nan nan nan nan nan nan nan nan nan nan nan nan nan nan nan nan nan nan nan nan nan nan nan nan nan nan nan nan nan nan nan nan nan nan nan -0 -0 -0 -0 -0 -0 -0 -0 -0 -0 -0 -0 -0 -0 -0 -0 -0 -0 -0 -0 -0 -0 -0 -0
-0 -0 -0 -0 -0 -0 -0 -0 -0 -0 nan nan nan nan nan nan nan nan nan nan nan nan nan nan nan nan nan nan nan nan nan nan nan nan nan nan nan nan nan nan nan nan nan nan nan nan nan nan nan nan nan nan nan nan nan nan nan nan nan nan nan nan nan nan nan nan nan nan nan nan nan -0 -0 -0 -0 -0 -0 -0 -0 -0 -0 -0 -0 -0 -0 -0
-0 -0 -0 -0 -0 -0 -0 -0 -0 -0 -0 nan nan nan nan nan nan nan nan nan nan nan nan nan nan nan nan nan nan nan nan nan nan nan nan nan nan nan nan nan nan nan nan nan nan nan nan nan nan nan nan nan nan nan nan nan nan nan nan nan nan nan nan nan nan nan nan nan nan nan nan nan nan nan nan -0 -0 -0 -0 -0 -0 -0 -0 -0 -0 -0
nan nan nan nan nan nan nan -2 -0 -0 -0 nan nan nan nan nan nan nan nan nan nan nan nan nan nan nan nan nan nan nan nan nan nan nan nan nan nan nan nan nan nan nan nan nan nan nan nan nan nan nan nan nan nan nan nan nan nan nan nan nan nan nan nan nan nan nan nan nan nan nan nan nan nan nan nan nan -0 -0 -0 -0 -0 -0 -0 -0 -0 nan
nan nan nan nan nan nan nan nan nan nan nan nan nan nan nan nan nan nan nan nan nan nan nan nan nan nan nan nan nan nan nan nan nan nan nan nan nan nan nan nan nan nan nan nan nan nan nan nan nan nan nan nan nan nan nan nan nan nan nan nan nan nan nan nan nan nan nan nan nan nan nan nan nan nan nan nan nan nan -0 -0 -0 -0 -0 -0 -0 -0
nan nan nan nan nan nan nan nan nan nan nan nan nan nan nan nan nan nan nan nan nan nan nan nan nan nan nan nan nan nan nan nan nan nan nan nan nan nan nan nan nan nan nan nan nan nan nan nan nan nan nan nan nan nan nan nan nan nan nan nan nan nan nan nan nan nan nan nan nan nan nan nan nan nan nan nan -0 -0 -0 -0 -0 -0 -0 -0 -0 -0
nan nan nan nan nan nan nan nan nan nan nan nan nan nan nan nan nan nan nan nan nan nan nan nan nan nan nan nan nan nan nan nan nan nan nan nan nan nan nan nan nan nan nan nan nan nan nan nan nan nan nan nan nan nan nan nan nan nan nan nan nan nan nan nan nan nan nan nan nan nan nan nan nan nan nan nan nan nan -0 -0 -0 -0 -0 -0 -0 -0
nan nan nan nan nan nan nan nan nan nan nan nan nan nan nan nan nan nan nan nan nan nan nan nan nan nan nan nan nan nan nan nan nan nan nan nan nan nan nan nan nan nan nan nan nan nan nan nan nan nan nan nan nan nan nan nan nan nan nan nan nan nan nan nan nan nan nan nan nan nan nan nan nan nan nan nan nan nan nan -0 -0 -0 -0 -0 -0 -0
nan nan nan nan nan nan nan nan nan nan nan nan nan nan nan nan nan nan nan nan nan nan nan nan nan nan nan nan nan nan nan nan nan nan nan nan nan nan nan nan nan nan nan nan nan nan nan nan nan nan nan nan nan nan nan nan nan nan nan nan nan nan nan nan nan nan nan nan nan nan nan nan nan nan nan nan nan nan nan nan nan nan nan -0 -0 -2
nan nan nan nan nan nan nan nan nan nan nan nan nan nan nan nan nan nan nan nan nan nan nan nan nan nan nan nan nan nan nan nan nan nan nan nan nan nan nan nan nan nan nan nan nan nan nan nan nan nan nan nan nan nan nan nan nan nan nan nan nan nan nan nan nan nan nan nan nan nan nan nan nan nan nan nan nan nan nan nan nan nan nan nan nan nan
nan nan nan nan nan nan nan nan nan nan nan nan nan nan nan nan nan nan nan nan nan nan nan nan nan nan nan nan nan nan nan nan nan nan nan nan nan nan nan nan nan nan nan nan nan nan nan nan nan nan nan nan nan nan nan nan nan nan nan nan nan nan nan nan nan nan nan nan nan nan nan nan nan nan nan nan nan nan nan nan nan nan nan nan nan nan
nan nan nan nan nan nan nan nan nan nan nan nan nan nan nan nan nan nan nan nan nan nan nan nan nan nan nan nan nan nan nan nan nan nan nan nan nan nan nan nan nan nan nan nan nan nan nan nan nan nan nan nan nan nan nan nan nan nan nan nan nan nan nan nan nan nan nan nan nan nan nan nan nan nan nan nan nan nan nan nan nan nan nan nan nan nan
nan nan nan nan nan nan nan nan nan nan nan nan nan nan nan nan nan nan nan nan nan nan nan nan nan nan nan nan nan nan nan nan -0 -0 nan nan nan nan nan nan nan nan nan nan nan nan nan nan nan nan nan nan nan nan nan nan nan nan nan nan nan nan nan nan nan nan nan nan nan nan nan nan nan nan nan nan nan nan nan nan nan nan nan nan nan nan
nan nan nan nan nan nan nan nan nan nan nan nan nan nan nan nan nan nan nan nan nan nan nan nan nan nan nan nan nan nan nan nan nan nan nan nan nan nan nan nan nan nan nan nan nan nan nan nan nan nan nan nan nan nan nan nan nan nan nan nan nan nan nan nan nan nan nan nan nan nan nan nan nan nan nan nan nan nan nan nan nan nan nan nan nan nan
nan nan nan nan nan nan nan nan nan nan nan nan nan nan nan nan nan nan nan nan nan nan nan nan nan nan nan nan nan nan nan nan nan nan nan nan nan nan nan nan nan nan nan nan nan nan nan nan nan nan nan nan nan nan nan nan nan nan nan nan nan nan nan nan nan nan nan nan nan nan nan nan nan nan nan nan nan nan nan nan nan nan nan nan nan nan
nan nan nan nan nan nan nan nan nan nan nan nan nan nan nan nan nan nan nan nan nan nan nan nan nan nan nan nan nan nan nan nan nan nan nan nan nan nan nan nan nan nan nan nan nan nan nan nan nan nan nan nan nan nan nan nan nan nan nan nan nan nan nan nan nan nan nan nan nan nan nan nan nan nan nan nan nan nan nan nan nan nan nan nan nan nan
nan nan nan nan nan nan nan nan nan nan nan nan nan nan nan nan nan nan nan nan nan nan nan nan nan nan nan nan nan nan nan nan nan nan nan nan nan nan nan nan nan nan nan nan nan nan nan nan nan nan nan nan nan nan nan nan nan nan nan nan nan nan nan nan nan nan nan nan nan nan nan nan nan nan nan nan nan nan nan nan nan nan nan nan nan nan
nan nan nan nan nan nan nan nan nan nan nan nan nan nan nan nan nan nan nan nan nan nan nan nan nan nan nan nan nan nan nan nan nan nan nan nan nan nan nan nan nan nan nan nan nan nan nan nan nan nan nan nan nan nan nan nan nan nan nan nan nan nan nan nan nan nan nan nan nan nan nan nan nan nan nan nan nan nan nan nan nan nan nan nan nan nan
nan nan nan nan nan nan nan nan nan nan nan nan nan nan nan nan nan nan nan nan nan nan nan nan nan nan nan nan nan nan nan nan nan nan nan nan nan nan nan nan nan nan nan nan nan nan nan nan nan nan nan nan nan nan nan nan nan nan nan nan nan nan nan nan nan nan nan nan nan nan nan nan nan nan nan nan nan nan nan nan nan nan nan nan nan nan
nan nan nan nan nan nan nan nan nan nan nan nan nan nan nan nan nan nan nan nan nan nan nan nan nan nan nan nan nan nan nan nan nan nan nan nan nan nan nan nan nan nan nan nan nan nan nan nan nan nan nan nan nan nan nan nan nan nan nan nan nan nan nan nan nan nan nan nan nan nan nan nan nan nan nan nan nan nan nan nan nan nan nan nan nan nan
nan nan nan nan nan nan nan nan nan nan nan nan nan nan nan nan nan nan nan nan nan nan nan nan nan nan nan nan nan nan nan nan nan nan nan nan nan nan nan nan nan nan nan nan nan nan nan nan nan nan nan nan nan nan nan nan nan nan nan nan nan nan nan nan nan nan nan nan nan nan nan nan nan nan nan nan nan nan nan nan nan nan nan nan nan nan
nan nan nan nan nan nan nan nan nan nan nan nan nan nan nan nan nan nan nan nan nan nan nan nan nan nan nan nan nan nan nan nan nan nan nan nan nan nan nan nan nan nan nan nan nan nan nan nan nan nan nan nan nan nan nan nan nan nan nan nan nan nan nan nan nan nan nan nan nan nan nan nan nan nan nan nan nan nan nan nan nan nan nan nan nan nan
nan nan nan nan nan nan nan nan nan nan nan nan nan nan nan nan nan nan nan nan nan nan nan nan nan nan nan nan nan nan nan nan nan nan nan nan nan nan nan nan nan nan nan nan nan nan nan -0 -0 -0 -0 nan nan nan nan nan nan nan nan nan nan nan nan nan nan nan nan nan nan nan nan nan nan nan nan nan nan nan nan nan nan nan nan nan nan nan
nan nan nan nan nan nan nan nan nan nan nan nan nan nan nan nan nan nan nan nan nan nan nan nan nan nan nan nan nan nan nan nan nan nan nan nan nan nan nan nan nan nan nan nan nan nan nan nan nan nan -0 -0 -0 -0 nan nan nan nan nan nan nan nan nan nan nan nan nan nan nan nan nan nan nan nan nan nan nan nan nan nan nan nan nan nan nan nan
Wind_Speed
1 2 3 5 5 5 5 6 6 6 5 4 3 3 3 4 4 4 4 4 4 3 3 2 2 2 3 7 10 11 11 11 11 10 10 10 10 9 9 9 8 8 8 8 8 8 8 8 8 8 7 7 7 7 7 7 7 7 7 6 6 6 6 6 6 6 6 7 7 7 7 7 7 6 6 5 5 5 6 6 5 5 5 5 5 5
2 2 3 5 5 4 4 6 6 6 5 5 4 4 4 4 3 3 3 3 3 3 2 2 2 2 2 4 7 10 11 11 10 10 10 10 9 9 9 8 8 8 7 7 7 8 8 8 7 7 7 7 7 7 7 7 7 7 6 6 6 6 6 6 6 6 6 7 7 7 7 6 6 6 5 5 5 5 5 5 5 5 5 5 5 5
3 2 3 4 4 4 3 4 5 4 5 5 5 5 5 5 4 3 2 2 2 3 2 2 2 2 2 1 5 9 10 10 10 10 10 9 9 9 8 8 7 7 7 7 7 7 7 7 7 7 7 7 7 7 7 7 6 6 6 6 6 6 5 6 6 6 6 6 6 6 5 5 5 5 5 5 5 5 5 5 5 5 5 5 5 5
3 3 3 3 2 2 2 3 3 3 3 4 4 5 5 5 4 3 2 2 2 2 2 2 2 2 2 1 3 7 10 11 11 10 10 9 9 8 8 7 7 7 7 7 7 7 7 7 7 6 6 7 7 7 7 6 6 6 5 5 5 5 5 5 5 5 5 5 5 4 4 4 4 4 4 4 4 4 4 4 4 4 4 4 4 5
3 3 4 3 2 2 2 2 3 3 4 4 4 4 4 4 3 2 2 2 2 2 2 3 3 2 2 1 2 6 10 11 11 10 10 9 9 8 8 7 7 7 6 6 6 6 6 6 6 6 6 6 6 6 6 6 6 5 5 5 4 4 4 4 4 4 4 4 4 3 4 4 4 4 4 4 4 4 3 3 3 3 3 4 4 4
3 3 3 3 2 2 2 2 3 3 3 3 3 3 3 3 3 2 2 2 2 2 2 2 3 3 2 2 2 6 9 10 11 10 10 9 8 8 8 7 7 6 6 6 6 6 6 6 6 5 5 6 6 6 6 6 6 5 5 4 4 4 3 3 3 3 3 3 3 3 3 3 4 4 4 4 4 3 3 3 3 3 3 3 4 4
3 3 2 2 2 2 2 2 3 3 3 3 3 3 3 3 3 3 3 2 2 2 2 2 3 3 3 3 3 5 8 9 9 9 9 9 8 8 7 7 7 6 6 5 5 5 5 5 5 5 5 5 5 5 6 5 5 5 5 5 4 4 3 3 3 3 3 3 3 3 3 3 3 4 4 4 3 3 3 3 3 3 3 3 3 3
4 3 2 2 2 2 1 1 2 2 3 3 3 3 3 2 2 3 3 3 2 2 2 3 3 3 3 4 4 5 6 7 7 7 7 7 7 7 7 7 6 6 5 5 5 5 5 4 4 4 5 5 5 5 5 5 5 5 5 5 4 4 4 4 3 3 3 3 3 3 3 3 3 3 4 4 3 3 3 3 3 3 3 3 3 2
5 4 3 3 3 3 2 1 1 1 1 3 4 4 4 3 3 2 2 2 2 2 2 2 3 3 3 3 4 4 6 6 5 5 6 5 6 6 6 6 6 5 5 5 4 4 4 4 4 4 4 4 5 5 5 4 4 4 4 4 4 4 4 4 4 4 3 3 3 3 3 3 3 3 3 3 3 3 3 3 3 3 3 2 2 2
5 5 4 3 2 2 2 2 1 1 0 1 2 3 3 4 4 4 3 2 2 1 1 2 3 3 3 3 3 4 5 5 6 7 7 6 6 6 6 6 5 5 5 5 4 4 4 4 3 4 4 4 4 4 4 4 3 3 3 4 4 4 4 4 4 4 3 3 3 3 3 3 3 3 3 3 3 3 3 3 3 3 3 2 2 2
4 4 4 3 1 1 1 2 2 1 1 2 2 2 1 3 4 5 5 4 3 2 1 2 2 2 2 2 2 3 3 4 5 6 7 7 7 7 6 6 6 5 5 5 5 4 4 4 4 4 3 3 4 3 3 3 3 2 3 3 3 3 3 3 3 3 3 3 3 3 3 3 3 3 3 3 3 3 3 3 3 2 2 2 3 3
3 3 3 2 2 1 1 2 2 2 2 3 3 2 2 1 2 3 6 6 5 4 2 2 2 2 1 1 1 2 2 2 2 3 3 4 5 5 5 4 5 5 5 5 5 5 5 5 4 4 3 3 3 3 2 2 2 2 2 2 2 2 3 3 3 3 3 3 3 3 3 3 3 3 3 3 4 4 3 3 3 3 2 3 3 3
3 2 2 2 3 3 2 2 2 2 3 4 5 6 5 3 1 1 3 5 5 4 2 2 2 2 1 1 1 1 1 1 1 2 2 2 3 3 3 2 2 2 3 3 3 4 5 5 4 4 4 3 3 2 2 1 1 1 1 1 2 2 2 2 2 2 2 2 2 2 2 2 3 3 3 4 4 4 4 4 3 3 3 3 3 4
3 3 3 3 3 3 3 4 4 5 6 6 5 4 3 3 2 2 2 3 3 2 1 2 2 1 1 1 1 1 0 0 1 1 2 2 2 2 2 1 1 1 1 1 2 2 3 3 3 3 3 3 2 2 1 1 1 1 0 1 1 2 2 2 2 1 1 1 1 1 2 2 2 3 3 4 4 4 4 4 3 3 3 3 3 4
4 4 4 4 4 4 5 5 6 6 6 4 2 2 3 3 3 3 3 4 3 2 2 2 2 1 1 1 1 1 0 0 1 1 1 1 2 2 2 1 1 1 1 1 1 1 2 2 2 2 2 2 2 2 1 1 1 0 0 1 1 2 2 2 1 1 1 1 1 1 1 2 2 2 3 3 3 3 3 3 3 3 3 3 3 4
4 5 5 5 5 5 5 5 5 5 4 3 3 3 4 4 4 4 5 5 4 3 3 3 3 2 1 1 1 1 0 0 1 1 1 1 1 2 2 1 0 0 1 1 1 1 1 1 1 2 2 3 3 2 2 1 1 0 1 1 2 2 2 1 1 1 1 1 1 1 1 1 2 2 2 3 3 3 3 3 3 3 2 2 3 3
4 5 5 5 5 5 4 4 3 3 3 3 3 3 4 5 5 5 5 5 4 3 3 4 4 3 1 1 1 1 0 0 1 2 2 1 1 1 2 1 0 1 1 1 1 1 1 1 1 1 2 3 3 3 3 2 1 0 1 2 2 2 2 1 1 1 1 1 2 2 2 2 2 2 2 2 2 2 3 2 2 2 2 2 2 2
4 4 4 4 4 4 4 3 2 2 3 3 3 2 2 2 3 4 4 5 5 5 4 4 3 2 2 1 1 1 1 1 1 2 2 1 1 1 1 1 0 0 1 1 1 1 1 1 1 2 2 4 4 4 3 2 1 1 2 2 2 2 2 1 1 0 1 1 2 2 2 2 2 2 2 2 2 2 2 2 2 2 2 2 1 1
4 4 4 4 3 3 4 4 4 4 4 4 4 4 3 2 2 3 4 4 5 5 5 4 3 2 2 1 1 1 1 0 1 2 2 1 1 1 1 1 0 0 1 1 1 1 1 1 2 3 4 5 5 4 3 2 0 2 2 2 2 2 1 1 0 0 1 2 2 3 2 2 2 2 2 2 1 1 1 2 2 2 2 1 1 1
4 3 4 3 3 3 4 5 5 5 6 6 6 5 5 4 4 4 4 4 3 3 2 3 3 2 1 1 1 1 1 0 1 2 2 1 1 1 1 1 1 0 1 1 1 1 1 1 2 3 4 5 5 4 3 1 1 2 2 2 2 2 1 1 0 0 1 2 2 2 2 2 2 2 2 2 1 1 1 1 1 2 2 2 1 1
4 4 4 3 4 4 4 5 6 6 6 6 6 5 5 5 5 5 4 4 3 3 2 3 2 1 1 1 1 1 0 0 1 2 1 1 1 1 1 1 1 0 1 1 1 1 1 1 1 2 3 4 4 4 2 1 2 3 3 3 2 2 2 1 1 1 1 2 2 2 2 2 2 2 2 1 1 1 0 0 0 1 1 1 1 1
4 4 4 4 4 4 4 5 6 7 8 8 7 6 5 6 6 6 5 5 4 4 3 2 1 1 1 1 2 1 1 0 0 1 2 1 1 1 1 0 0 1 1 1 0 1 1 1 1 2 3 4 5 4 2 2 3 3 3 3 3 2 2 2 1 1 1 1 2 2 2 2 2 1 1 1 1 0 0 0 0 0 0 1 1 1
3 3 4 4 3 2 3 4 6 7 8 7 6 6 5 6 6 6 6 5 5 4 3 3 2 2 2 2 2 1 1 1 1 0 2 2 1 1 1 0 0 0 1 0 1 1 1 1 1 2 3 5 5 4 3 3 3 3 3 3 3 3 2 2 1 1 1 1 1 1 1 1 1 1 1 1 1 1 1 1 1 1 1 1 0 1
2 2 3 4 3 2 2 4 5 5 5 4 3 2 2 3 3 3 3 4 4 4 4 4 3 3 2 2 2 1 1 1 1 0 1 1 1 1 1 0 0 1 1 1 1 1 1 1 1 1 2 5 5 3 2 3 4 3 3 3 3 2 2 2 2 1 1 1 1 1 1 1 1 1 1 1 1 1 1 1 1 1 1 1 1 2
1 1 2 3 4 4 4 5 6 6 5 4 4 4 5 6 6 6 5 5 5 4 4 4 3 2 1 1 1 1 1 0 0 1 1 1 1 1 1 0 0 0 1 1 1 1 1 1 1 1 2 4 4 2 2 4 4 3 3 2 2 2 2 2 2 2 2 1 1 1 1 1 1 1 1 0 1 1 1 1 1 2 2 2 2 2
2 3 4 5 6 7 8 9 10 10 9 7 6 5 6 6 6 6 5 4 4 4 4 4 2 1 1 0 0 0 1 1 1 1 0 1 1 1 1 0 0 0 0 1 1 1 1 0 1 1 2 3 4 3 2 3 3 3 3 2 2 2 2 2 2 2 2 2 1 1 1 1 1 1 1 1 1 1 1 1 1 1 1 1 1 2
6 8 9 9 10 10 11 12 13 13 13 11 10 8 7 7 6 6 5 4 4 4 4 3 2 1 1 1 1 1 1 1 1 1 1 1 1 1 1 1 0 0 0 1 0 0 0 1 1 1 2 2 3 4 5 4 4 3 3 3 2 2 2 2 2 2 2 1 1 1 1 1 1 1 1 1 1 1 1 2 2 1 0 1 1 2
10 10 11 11 11 11 12 13 13 14 14 13 13 12 9 7 6 6 5 5 5 4 4 3 3 2 2 1 1 0 1 1 2 2 1 1 1 1 1 1 0 0 0 1 1 0 0 0 1 1 1 2 2 3 5 5 5 5 4 3 3 3 3 2 2 2 1 1 1 0 0 0 0 0 1 1 1 2 2 2 2 2 1 1 1 2
11 11 11 11 12 12 13 13 13 13 14 14 13 11 7 5 5 5 5 5 5 4 4 3 3 2 2 1 0 0 1 2 2 3 2 1 1 1 1 1 0 0 1 1 1 1 0 0 0 1 1 1 2 2 3 4 4 4 4 4 4 3 3 3 2 2 1 1 1 0 1 1 1 1 1 1 1 2 2 2 2 2 1 1 1 1
9 9 9 9 9 10 9 9 10 12 13 12 9 7 3 2 3 4 5 5 5 4 4 3 2 2 2 1 1 0 1 2 3 3 3 2 1 1 1 1 1 0 1 1 1 1 1 1 1 0 1 1 1 1 2 2 3 3 3 3 3 3 3 3 2 2 1 1 1 1 1 1 1 2 2 2 2 2 2 3 3 2 1 1 1 1
6 6 6 6 6 6 5 5 6 8 9 8 7 5 3 2 3 4 5 5 4 4 4 3 3 2 2 2 2 1 1 1 3 4 4 2 1 2 2 1 1 0 1 0 1 1 1 1 1 1 1 1 1 1 1 1 2 2 2 2 2 2 3 3 3 2 2 2 2 1 2 2 2 2 2 2 3 3 3 3 3 2 2 1 2 2
5 5 5 5 4 4 4 4 5 5 5 5 4 4 3 3 3 3 4 3 3 3 3 3 3 2 2 2 2 1 1 1 3 4 4 2 1 1 1 1 1 1 0 1 1 0 1 1 1 1 0 0 1 1 1 1 1 1 2 1 1 1 2 2 2 2 1 2 2 2 2 2 2 2 2 3 3 3 3 4 3 2 2 2 2 2
5 4 4 4 4 4 4 4 4 4 4 3 3 3 3 3 4 3 3 2 2 3 3 3 3 2 2 1 1 0 0 1 3 5 5 3 2 1 1 1 2 2 1 0 1 1 1 1 1 0 0 0 0 0 0 0 1 1 1 1 1 1 2 2 2 1 1 1 2 2 2 2 2 2 2 2 3 3 3 3 3 3 2 2 2 2
5 5 4 4 4 4 4 4 4 4 3 3 3 3 3 3 3 3 3 2 2 2 3 3 3 3 2 1 1 0 0 1 3 5 6 3 2 2 2 2 2 2 2 1 1 1 1 1 0 0 0 0 0 0 0 0 0 1 1 1 1 1 1 1 1 1 1 1 1 1 2 2 2 2 2 2 2 2 3 3 3 3 3 2 2 2
5 5 4 4 4 4 4 4 4 3 3 3 3 2 2 3 3 3 3 2 2 2 2 2 2 2 3 2 1 1 1 2 4 6 6 3 2 2 2 2 2 3 2 2 1 1 1 1 0 0 0 0 1 1 1 0 0 0 0 1 1 1 1 1 1 1 1 0 0 1 1 1 1 1 2 2 2 2 2 3 3 4 4 3 3 3
4 4 3 3 3 4 4 4 3 3 3 2 2 2 2 2 2 2 2 2 2 2 2 2 2 1 1 1 1 1 1 2 4 6 6 4 2 2 2 2 2 3 2 2 1 1 1 1 1 0 0 0 1 1 1 1 1 1 1 1 1 1 1 0 0 1 1 0 0 1 1 1 1 1 1 2 2 3 3 3 3 4 4 4 4 3
4 4 3 2 2 3 3 3 2 2 2 2 1 2 2 2 2 2 2 2 2 2 3 3 3 3 2 2 1 1 1 2 4 5 6 3 2 1 1 2 2 2 2 2 2 2 1 1 1 0 0 0 1 1 1 1 1 1 1 1 1 1 1 0 0 1 1 0 0 0 0 0 1 1 1 2 3 3 3 3 3 3 4 4 4 4
4 3 2 1 1 2 2 2 2 2 1 1 1 2 2 2 2 2 2 2 3 3 3 3 3 3 4 4 3 3 2 2 3 4 5 3 2 1 2 2 2 2 1 1 2 2 2 1 1 1 1 1 1 1 0 1 1 1 1 1 1 1 1 1 1 1 1 1 0 0 0 0 1 1 1 2 2 2 2 2 2 2 3 3 4 5
4 3 3 2 1 1 1 2 1 1 1 2 2 2 2 2 3 3 2 3 3 3 3 3 3 3 4 4 4 4 3 2 2 3 3 2 2 1 2 2 2 2 1 1 1 2 2 1 1 1 1 1 1 0 0 0 1 1 1 1 1 1 1 1 1 1 1 0 0 0 0 0 0 1 1 1 1 1 1 1 1 1 2 2 3 3
3 3 3 2 1 1 1 1 1 2 2 2 2 3 3 3 3 3 3 3 3 3 3 3 3 2 3 3 3 4 3 2 2 3 3 2 1 1 1 2 2 2 2 1 1 1 1 1 1 1 0 0 0 0 0 1 1 1 1 1 1 1 2 2 1 1 1 0 0 0 0 0 0 0 0 0 0 1 1 1 1 1 1 1 1 2
3 3 2 1 1 1 1 2 2 2 2 2 2 2 2 2 2 2 2 2 2 2 2 2 2 2 2 3 3 3 3 2 2 2 2 2 1 1 1 2 2 3 3 2 1 1 1 1 1 1 1 0 0 0 1 1 1 2 2 2 1 1 1 2 1 1 1 1 1 1 1 1 1 1 0 0 0 1 1 1 1 2 1 1 1 1
4 3 2 1 1 1 1 2 2 2 2 2 2 2 2 2 2 2 2 2 2 1 1 1 2 2 2 2 2 2 2 2 2 2 2 2 2 1 1 1 2 3 3 2 1 1 1 2 2 2 2 2 1 1 2 2 2 2 3 2 2 2 3 3 2 1 1 1 1 1 2 1 1 0 1 1 1 1 1 2 2 3 2 2 1 1
3 2 2 2 2 2 2 2 2 2 2 2 2 1 1 1 2 2 3 3 2 2 2 1 2 2 2 2 2 2 2 2 2 1 2 2 1 1 1 1 2 2 3 2 1 1 1 2 2 3 3 2 3 3 4 3 3 3 3 3 2 2 2 1 1 1 1 1 1 1 1 1 1 1 1 2 2 2 2 2 3 3 3 2 2 2
2 2 2 2 2 2 2 2 2 2 2 2 2 2 1 1 1 2 2 2 3 3 2 1 1 1 2 2 1 1 1 2 2 2 1 2 2 2 1 1 1 2 2 2 2 1 1 1 2 3 2 2 3 4 4 4 3 3 3 3 3 3 2 1 1 1 1 1 1 1 1 0 1 1 2 2 2 2 2 2 2 3 3 3 2 2
3 3 2 2 2 2 2 2 2 2 2 2 2 2 1 1 1 1 2 2 3 3 2 1 2 2 1 1 1 1 0 1 1 2 2 2 3 3 2 1 1 1 2 2 2 2 2 2 2 2 2 2 3 4 5 4 4 3 3 3 4 4 3 2 1 1 1 1 1 1 1 0 0 1 2 2 2 2 2 2 2 2 3 2 3 3
3 3 2 2 2 2 3 2 2 2 2 2 2 2 1 1 1 1 2 3 3 2 1 2 2 2 2 2 1 1 1 1 1 1 2 2 2 2 2 2 1 1 1 2 2 2 3 2 2 1 1 2 4 5 5 4 4 4 3 3 3 3 3 3 3 2 2 2 2 1 1 1 1 2 3 3 3 3 2 2 3 3 3 3 3 3
3 3 3 3 2 2 2 2 2 2 2 2 2 2 1 1 1 2 2 2 2 2 2 2 2 2 2 2 1 1 2 2 2 1 1 1 1 1 2 1 1 1 2 2 2 3 3 3 3 2 3 3 4 4 5 4 4 4 3 3 3 3 3 3 3 3 3 3 3 2 2 2 2 2 3 3 3 3 3 3 3 3 3 3 3 3
4 4 4 3 3 3 2 2 2 3 3 2 2 2 1 1 2 2 2 2 2 2 3 2 2 2 2 1 1 1 2 2 2 1 1 2 2 2 2 1 1 1 2 2 2 3 4 4 4 4 5 5 4 4 4 4 4 4 4 3 3 4 4 4 3 3 3 4 4 3 3 3 3 3 3 3 3 3 3 3 3 3 3 3 3 3
4 4 4 4 4 3 3 3 3 3 3 3 3 2 1 1 1 2 2 1 2 2 3 3 3 2 2 1 1 1 1 1 1 1 1 1 2 2 2 2 2 2 1 2 2 2 3 4 6 7 7 6 6 5 5 4 4 4 4 4 4 4 4 4 3 3 3 4 4 4 4 3 3 3 2 3 3 3 3 3 3 3 3 3 3 3
4 4 4 4 4 4 4 4 4 4 3 4 3 3 2 1 1 1 1 1 1 2 2 3 3 3 3 2 2 2 2 1 1 1 1 1 2 2 2 2 2 2 1 1 2 2 2 3 5 7 9 10 9 7 6 5 4 4 4 4 4 4 4 4 3 3 3 3 3 3 4 3 3 3 2 3 4 4 4 3 3 3 3 2 3 3
4 4 4 4 4 4 4 4 4 4 4 4 4 4 3 2 2 1 1 1 1 1 2 2 3 3 3 3 3 3 3 2 2 2 2 2 2 2 2 2 2 2 2 2 2 2 1 2 3 4 8 11 13 11 7 6 5 4 4 4 4 3 3 3 3 3 3 3 3 3 3 3 3 3 3 3 3 4 4 4 3 3 2 2 2 3
Wind_Direction
127 142 151 154 153 155 161 161 155 147 143 135 125 112 99 87 75 64 58 59 60 62 61 48 31 40 95 130 133 133 133 130 126 122 116 112 107 102 97 92 88 83 79 76 73 71 69 68 67 65 64 61 58 54 49 45 40 37 34 32 32 33 35 39 43 49 55 62 68 73 77 79 79 79 77 73 68 63 59 56 50 44 36 27 18 11
126 133 147 156 156 154 156 162 160 154 149 142 136 128 118 108 95 75 58 54 54 56 58 49 41 39 46 124 138 141 139 135 130 125 120 115 110 105 99 94 89 85 81 77 74 72 69 69 68 67 67 65 62 57 52 47 42 37 33 31 29 29 31 35 39 44 48 55 60 65 68 71 73 74 74 72 69 64 59 52 46 39 31 23 15 8
144 144 154 158 158 154 151 160 159 152 144 139 134 130 124 116 106 89 67 55 51 53 52 44 42 42 39 101 145 148 145 138 133 128 124 119 113 106 99 94 89 84 80 77 74 71 68 68 68 68 69 68 65 62 57 51 45 40 35 31 29 29 31 35 39 43 47 51 55 58 61 64 66 67 68 67 65 63 58 51 43 35 27 19 12 6
154 155 158 153 145 137 127 139 134 124 117 118 119 119 116 110 103 93 79 71 67 61 54 46 43 41 38 47 153 154 148 141 135 131 127 121 114 106 99 92 87 83 79 76 73 70 67 66 67 68 69 69 68 64 60 55 50 45 39 35 32 32 34 38 42 46 49 52 54 56 58 60 61 62 62 61 60 59 56 50 42 33 25 17 10 4
162 159 157 149 131 105 88 105 109 108 102 103 103 102 99 98 98 97 90 84 78 72 61 50 44 38 27 359 162 156 148 141 137 132 128 121 113 105 98 91 85 81 78 75 72 69 67 66 66 68 69 70 68 66 62 59 55 51 46 42 39 39 41 44 47 50 53 55 58 59 61 60 60 60 58 57 56 54 52 46 39 30 23 16 10 5
162 159 153 143 126 108 100 111 120 121 113 104 95 89 85 89 93 94 90 83 79 76 68 58 48 38 24 3 144 150 144 138 135 131 124 118 111 104 96 90 84 80 77 75 72 70 67 66 66 68 70 71 69 67 64 61 58 56 53 50 49 49 51 54 56 58 59 60 61 63 64 64 64 62 60 57 54 50 45 40 34 27 22 18 12 7
153 150 141 120 104 101 112 134 143 143 136 124 109 97 90 87 84 82 78 77 79 82 84 75 62 47 35 25 70 115 126 125 123 119 114 111 106 99 93 87 83 79 77 76 73 71 68 67 68 70 72 73 72 69 66 62 60 58 57 56 56 57 60 63 65 66 66 66 66 67 69 69 69 68 66 62 57 50 43 35 29 24 22 20 16 9
150 150 141 125 115 114 118 135 147 149 148 144 137 128 117 103 92 86 84 78 77 83 96 91 79 63 46 39 56 79 98 102 99 94 95 95 92 89 86 83 80 78 77 75 73 71 68 68 70 73 76 77 75 72 68 64 60 57 56 56 56 58 61 65 68 71 71 72 72 73 74 75 76 77 75 71 65 57 46 37 29 24 22 21 17 10
152 155 156 153 148 145 147 144 137 137 153 153 151 147 142 136 127 115 106 89 73 67 86 100 96 84 62 46 55 72 87 86 81 77 77 76 76 76 77 76 75 74 74 73 72 69 68 68 70 75 79 81 80 77 70 64 59 55 54 53 54 55 58 62 66 70 73 75 76 78 79 81 83 84 85 82 76 68 58 45 35 26 21 18 14 7
152 155 155 153 152 151 155 144 131 117 140 140 141 144 150 150 149 146 139 119 90 64 60 84 95 96 82 57 53 63 79 79 76 72 67 60 62 66 65 64 65 66 67 68 67 65 64 64 68 73 78 81 82 80 74 65 58 54 50 50 51 52 54 57 61 65 70 74 78 82 85 88 91 94 95 93 89 83 74 61 47 34 24 16 9 2
152 154 149 140 122 97 112 116 117 124 139 117 104 100 119 153 159 159 158 152 144 125 82 64 70 82 88 65 51 51 61 68 65 59 54 49 51 53 53 53 54 56 58 60 61 59 55 55 59 65 70 76 80 81 76 65 55 49 46 48 50 51 52 54 56 60 65 71 77 82 87 93 98 102 105 103 100 96 89 79 65 48 30 16 7 2
153 153 146 139 130 114 91 92 100 123 142 140 141 151 178 186 179 172 167 162 158 151 127 91 65 55 56 52 42 39 48 68 67 55 43 39 37 36 38 41 44 46 49 53 54 52 50 46 49 55 59 63 69 73 73 60 47 37 39 47 52 54 53 51 51 52 58 65 72 79 85 92 99 105 109 107 105 101 96 88 77 62 39 22 11 6
144 143 141 145 149 149 139 131 134 149 169 179 182 182 180 175 178 179 165 156 151 144 131 117 94 68 53 48 38 33 37 70 75 67 51 38 28 21 16 23 30 35 36 45 48 46 43 40 41 44 46 45 46 49 50 32 17 15 31 52 61 63 61 54 49 46 49 57 66 74 79 88 95 102 105 106 104 101 97 91 83 69 49 28 16 11
144 144 149 159 167 169 165 163 167 175 187 191 188 175 154 144 141 138 122 122 119 116 116 114 107 95 79 63 53 41 23 71 83 73 59 47 29 14 359 2 15 29 25 48 52 44 29 27 26 28 30 27 24 17 356 341 330 330 17 72 79 76 69 61 53 47 46 54 66 75 80 88 94 100 104 104 103 101 98 92 85 73 56 35 22 16
158 161 167 176 180 181 179 180 183 186 187 180 156 108 98 117 137 145 139 133 129 125 122 115 110 106 110 93 81 64 9 108 105 95 79 61 40 18 352 341 357 38 39 57 57 41 19 15 9 3 2 357 349 330 310 303 291 279 100 97 90 83 75 66 60 55 58 72 85 91 95 98 102 104 107 108 107 105 102 96 89 81 66 45 29 21
168 172 178 183 185 185 184 187 189 187 168 139 125 130 139 151 160 163 156 148 146 148 149 145 143 141 143 122 113 110 103 122 115 113 110 88 61 30 356 335 343 76 71 61 49 30 8 2 353 346 339 336 331 324 317 311 299 234 117 104 94 87 77 70 67 73 101 122 129 131 126 121 118 116 115 115 115 114 111 107 99 90 78 57 39 25
175 181 185 185 186 185 181 184 179 162 132 129 138 152 159 163 166 165 158 151 152 159 168 166 164 164 176 155 134 125 112 138 124 117 115 106 79 45 4 337 335 110 101 76 42 19 354 349 343 336 327 329 326 321 316 312 309 115 112 105 99 91 82 68 60 73 121 136 140 141 138 138 135 132 127 127 126 126 125 120 113 105 93 74 52 34
183 187 188 188 185 178 170 169 153 127 131 140 144 145 142 145 150 152 153 156 162 169 175 174 170 164 160 174 160 134 107 159 136 123 117 115 91 62 21 339 323 122 113 92 57 23 353 341 330 323 321 323 321 316 308 301 293 116 111 107 102 97 90 76 58 52 102 126 132 133 134 136 136 136 136 136 138 139 141 136 131 123 111 93 70 44
189 189 189 187 176 165 164 170 166 159 160 159 155 148 138 133 138 148 158 165 170 173 172 172 171 165 161 167 142 116 100 195 149 132 133 132 100 69 29 343 311 169 120 92 57 27 353 327 313 312 315 315 311 306 298 288 174 121 114 111 108 105 101 94 70 59 92 108 115 118 121 123 125 126 129 129 134 141 147 149 148 143 133 123 107 70
188 193 195 178 162 158 173 182 180 176 173 166 159 154 153 155 159 164 167 170 169 165 162 167 168 169 175 146 108 95 90 204 154 136 138 135 105 64 31 350 329 163 142 108 51 12 339 322 313 310 310 308 303 297 284 253 150 128 122 121 120 120 125 135 143 119 98 100 104 106 107 107 108 108 106 107 108 113 129 146 150 148 143 142 136 117
191 199 201 179 167 169 183 184 181 175 169 158 153 153 158 161 166 170 170 165 159 155 158 166 165 160 163 133 109 94 43 193 149 135 129 126 108 74 46 358 328 185 155 132 79 9 330 321 313 310 310 308 302 291 268 199 154 142 138 138 138 141 147 159 161 141 112 106 107 109 108 108 105 101 96 92 85 76 69 65 122 136 135 139 138 129
194 199 193 187 185 184 181 171 169 167 163 158 159 163 165 169 173 174 171 168 167 166 161 146 120 90 84 88 84 75 15 323 141 132 129 155 165 123 81 4 297 215 159 128 46 353 329 320 312 309 315 313 304 287 252 191 164 155 152 152 153 154 155 158 152 135 119 117 118 120 123 123 123 122 119 117 105 79 15 339 338 358 75 128 141 146
195 193 177 183 188 184 155 148 153 159 163 165 168 170 167 173 174 173 170 168 161 148 124 103 90 82 76 77 76 71 44 348 341 113 137 176 177 144 93 14 263 227 151 85 10 341 321 319 318 319 320 317 305 282 236 183 166 161 156 156 156 156 156 153 146 134 125 122 125 128 131 135 140 144 149 157 171 194 231 268 292 308 315 306 287 259
190 178 163 170 169 152 126 134 143 149 152 145 132 110 93 110 115 117 120 122 119 114 111 110 103 91 76 83 86 87 78 21 325 270 159 172 159 127 94 270 232 196 133 82 22 335 313 317 329 335 333 327 313 281 209 169 158 153 150 151 152 155 157 156 152 146 136 128 127 126 129 133 137 146 154 169 188 207 225 244 262 276 285 291 299 300
144 144 146 152 152 147 139 141 144 144 139 124 111 100 91 89 87 84 83 89 100 111 121 118 110 95 72 75 81 97 115 80 299 273 163 151 131 108 98 31 266 189 117 83 39 333 303 325 359 4 356 340 328 308 158 143 140 138 136 137 141 147 153 155 155 152 146 139 132 127 128 126 129 137 147 175 209 223 237 248 256 262 270 281 301 315
132 135 138 141 142 143 141 142 144 144 141 135 128 122 117 110 104 100 100 109 122 132 133 126 120 114 95 84 127 159 147 158 234 266 211 139 127 121 119 111 289 298 78 64 32 340 305 39 38 25 13 357 352 1 67 97 104 108 113 114 118 125 134 140 144 147 145 142 139 138 135 139 145 156 167 186 209 224 235 245 252 259 266 298 335 348
121 126 130 133 135 137 138 140 142 143 142 138 136 134 131 125 120 120 128 145 152 151 145 143 139 130 116 147 174 173 160 176 203 231 247 153 132 130 132 134 163 234 57 72 48 6 332 50 41 27 17 4 359 7 32 44 53 62 74 80 87 93 100 107 116 122 125 129 131 136 139 150 161 174 187 201 209 213 218 225 229 232 229 55 34 20
111 117 121 125 129 132 134 137 140 141 141 140 140 141 140 135 135 143 160 164 161 155 150 149 145 143 151 172 175 170 184 204 201 201 215 196 142 126 121 125 146 183 122 92 84 58 356 13 14 8 359 356 358 6 17 22 28 33 39 50 60 69 74 76 79 82 87 90 92 93 90 90 213 227 227 231 230 227 224 222 217 206 154 93 64 39
98 104 108 115 121 126 129 132 135 138 139 140 141 143 143 140 146 155 163 160 156 152 151 148 142 139 146 152 158 242 221 208 191 181 185 181 139 111 110 118 138 170 143 118 112 118 200 229 357 3 346 351 359 3 3 9 14 18 20 29 40 51 58 55 52 47 40 33 16 355 340 329 323 315 303 285 270 257 244 237 228 211 166 126 59 11
82 85 86 95 103 109 116 123 128 131 132 131 130 129 122 122 134 145 149 151 151 151 151 147 140 134 132 123 122 209 222 188 173 171 181 177 153 121 123 131 147 182 184 143 140 151 187 178 156 83 6 353 358 3 359 3 5 6 6 14 27 41 49 41 32 19 1 347 331 321 313 316 316 314 308 299 289 276 261 252 241 220 157 176 241 284
78 74 69 69 71 75 80 92 106 113 113 108 102 95 85 89 108 125 137 145 147 146 145 146 147 146 143 137 148 181 212 161 159 168 186 177 147 126 134 137 134 153 270 202 166 164 169 165 153 130 67 9 2 3 8 9 7 2 353 360 15 33 43 33 22 8 356 345 332 322 316 316 311 305 300 293 286 276 264 255 240 211 141 185 223 245
85 80 76 70 65 62 63 68 76 83 85 79 74 73 78 87 101 115 129 136 136 133 133 139 143 147 149 150 164 177 174 132 159 174 184 164 130 114 128 128 121 112 346 326 314 250 154 148 141 128 90 24 6 5 7 13 14 5 348 351 3 22 32 24 14 5 1 354 349 345 342 335 323 312 303 292 283 273 264 257 243 216 163 193 218 233
93 89 85 82 77 73 72 74 76 76 74 69 64 63 68 80 90 97 105 109 114 119 126 133 138 142 142 139 147 156 100 126 167 177 179 157 129 121 128 124 123 123 115 13 345 346 34 100 114 122 160 270 339 351 352 4 24 19 353 341 345 6 16 10 2 355 358 358 2 7 8 359 349 336 320 304 289 277 267 260 249 230 191 195 213 230
102 100 96 94 90 87 83 81 81 80 78 73 67 63 61 70 78 82 81 75 78 95 117 132 140 145 147 140 141 185 184 155 172 177 177 155 131 125 132 135 136 137 137 125 86 55 54 62 80 144 200 183 182 182 216 311 15 24 354 320 317 337 356 355 347 340 343 353 10 20 21 10 7 2 345 323 302 287 275 267 259 251 236 217 213 219
108 105 103 103 103 102 99 94 90 86 81 74 67 62 63 67 71 74 73 66 62 65 80 107 127 141 148 150 159 176 175 158 170 175 175 160 141 129 129 143 149 149 145 144 139 128 113 108 122 144 144 157 172 181 181 199 234 264 239 250 261 284 317 332 328 320 317 315 35 57 40 17 12 7 355 339 322 308 298 287 280 273 267 252 239 227
115 113 110 108 110 112 110 105 100 95 89 77 67 63 67 70 73 73 71 66 65 68 73 71 75 87 112 132 147 152 136 144 164 173 174 165 151 135 128 149 158 157 148 145 143 140 130 128 121 103 90 165 181 181 172 176 198 223 222 214 214 217 229 246 279 285 281 248 155 90 53 26 12 2 354 350 343 333 323 312 303 296 290 281 273 259
126 123 117 108 109 115 117 114 110 106 101 91 80 74 76 76 77 76 73 65 62 66 76 75 71 65 61 60 58 68 91 131 160 171 171 160 147 128 117 139 158 164 156 147 143 140 130 128 126 118 119 215 209 190 166 169 196 217 222 210 208 211 206 198 225 257 266 249 194 94 57 27 5 356 354 357 354 348 338 330 323 317 314 307 298 287
137 136 133 122 116 121 127 130 130 126 116 108 100 92 86 84 81 79 78 72 67 67 75 77 74 67 61 61 62 64 73 109 148 161 157 145 129 111 110 120 146 166 165 143 139 140 138 141 149 164 199 229 236 226 157 163 204 219 231 238 238 234 214 196 206 229 253 253 230 184 120 45 6 350 352 356 356 353 346 342 337 334 334 323 310 297
147 151 155 157 156 146 141 144 141 130 115 112 113 112 108 99 92 87 85 81 74 69 68 75 78 74 65 64 65 67 70 89 116 128 120 115 110 112 118 121 132 142 130 110 121 133 140 152 168 182 188 206 226 233 160 252 256 262 284 273 245 217 194 181 188 210 241 263 262 230 155 81 353 329 349 4 2 353 344 336 335 340 349 336 313 295
157 162 167 166 160 150 146 128 121 120 123 124 125 123 118 109 101 94 92 88 83 78 78 82 86 84 76 67 63 60 60 75 97 102 87 83 86 102 123 127 132 134 130 113 111 129 144 151 174 202 201 173 163 162 154 209 232 250 269 260 235 197 176 170 172 183 215 252 270 267 189 183 211 233 242 17 358 341 322 312 312 318 331 330 304 287
168 171 172 158 139 117 93 88 100 118 133 135 133 128 124 117 111 105 102 94 89 86 93 99 99 95 86 77 70 63 56 59 78 90 81 75 69 76 112 125 130 134 138 133 132 147 166 171 183 196 194 185 183 187 197 194 196 205 223 243 254 250 220 206 190 174 193 218 233 237 232 216 211 215 246 289 284 270 273 275 276 276 273 252 241 247
176 173 159 141 127 118 107 113 123 131 136 135 133 131 134 130 131 131 128 118 109 102 102 121 125 123 118 110 102 91 76 60 61 78 89 86 79 74 95 125 132 134 136 133 137 168 200 209 213 214 207 205 217 234 238 218 205 209 225 238 259 276 269 236 203 159 198 205 215 224 231 227 222 239 301 300 289 270 259 252 252 251 246 224 212 219
170 149 123 121 126 134 140 140 141 145 145 136 130 127 125 131 138 139 132 128 129 130 123 121 128 135 139 138 133 120 104 87 76 75 92 104 103 95 92 129 141 142 142 137 137 163 214 230 232 230 220 216 229 242 250 239 224 216 220 220 227 244 259 219 172 152 194 199 201 205 222 233 260 300 308 300 290 278 262 255 252 252 249 228 211 213
130 111 108 118 128 135 140 143 151 156 153 142 132 124 118 121 125 122 116 122 130 132 123 113 111 119 131 143 147 138 114 102 95 90 95 140 149 146 129 136 157 166 166 164 160 155 159 223 233 233 225 227 238 246 253 250 240 226 214 212 216 225 239 238 110 123 183 195 196 196 206 234 299 309 300 286 277 266 251 246 247 250 251 238 226 221
117 122 131 140 146 151 154 155 156 154 146 133 127 126 126 114 105 108 116 123 129 132 127 133 137 139 148 152 148 130 105 104 99 94 89 119 137 144 146 149 174 201 209 211 209 206 206 221 224 220 210 227 239 247 252 254 252 243 221 210 217 228 238 250 259 240 229 231 222 208 172 134 325 298 286 275 263 251 241 238 239 240 239 232 227 227
132 140 148 151 155 158 158 155 152 145 135 122 118 119 121 109 99 103 116 121 126 131 141 152 161 164 167 161 149 137 145 142 121 98 85 91 110 133 146 155 176 208 231 240 243 243 244 243 231 205 196 229 241 246 247 250 253 254 243 223 223 232 242 245 243 241 242 247 243 224 153 144 211 262 269 268 264 258 248 243 240 239 234 225 222 224
150 153 157 156 155 152 150 149 148 146 141 131 123 120 119 118 112 107 104 111 119 128 138 150 164 169 164 152 148 151 160 162 154 134 115 107 114 130 143 151 173 197 220 235 243 248 251 252 247 239 235 242 246 247 244 242 243 246 246 236 231 234 238 237 233 229 229 238 236 217 158 174 218 244 253 259 262 262 256 246 240 237 234 229 226 225
158 158 159 156 152 149 148 152 156 155 150 138 128 120 125 150 145 129 106 114 125 132 140 147 159 164 156 146 152 164 165 162 157 146 133 123 124 131 144 146 154 171 195 214 229 238 243 242 238 236 235 239 245 249 247 239 236 236 237 234 234 236 241 238 230 221 218 228 226 215 192 205 223 238 247 255 258 257 253 246 240 235 232 230 229 229
157 157 158 156 155 155 158 163 166 163 157 145 136 129 127 151 140 126 113 127 135 142 151 159 165 170 170 168 169 171 173 160 149 140 134 128 130 138 148 150 149 153 164 187 210 228 238 237 233 230 229 230 236 244 249 243 237 232 231 232 233 237 243 241 231 219 213 217 214 207 204 217 228 236 246 256 259 260 258 255 248 240 232 228 228 231
155 156 158 159 161 163 164 167 170 168 162 152 145 140 135 125 103 91 99 116 132 147 158 167 172 177 185 183 178 175 182 178 178 172 156 136 136 144 153 157 156 157 161 183 203 220 232 237 233 229 226 224 226 232 242 242 239 233 231 232 234 236 242 244 236 221 211 209 201 196 200 215 224 229 235 248 256 261 262 257 252 245 235 225 226 230
157 158 161 164 166 166 166 169 171 170 165 157 151 147 143 142 136 127 116 118 132 147 157 170 178 186 195 191 187 183 187 189 197 200 179 147 144 153 163 167 171 178 192 207 218 227 239 247 242 232 224 218 217 219 227 233 235 235 235 233 232 232 237 242 238 226 215 209 198 189 191 205 213 219 221 233 247 256 258 253 249 243 232 220 222 228